Powrót do katalogu

COSMOS 1275 DEB

AktywnyPO
NORAD 42128·DEBRIS·🇷🇺 Russia

Wystrzelony Jun 4, 1981 z Plesetsk Cosmodrome

Loading…

Następne Przeloty (najbliższe 24 godziny)

TLE

ŚwieżeSource: Space-Track

Epoka: Sep 11, 2026, 09:51 UTC

1 42128U 81053QQ  26254.41067341  .00000553  00000-0  38254-3 0  9997
2 42128  82.9246 271.5806 0025689  38.5520  27.9888 13.97244480651884

Śledź COSMOS 1275 DEB w czasie rzeczywistym z AllMySat

Download on the App Store